Total_Precipitation_Accumulation
0.00 0.00 0.00 0.00 0.00 0.00 0.00 0.00 0.00 0.00 0.00 0.00 0.00 0.00 0.00 0.00 0.00 0.00 0.01 0.03 0.06 0.04 0.02 0.06 0.06 0.10 0.09 0.06 0.08 0.15 0.18 0.16 0.20 0.26 0.24 0.17 0.18 0.15 0.09 0.03 0.00 0.00 0.00
0.00 0.00 0.00 0.00 0.00 0.00 0.00 0.00 0.00 0.00 0.00 0.00 0.00 0.00 0.00 0.00 0.00 0.00 0.00 0.00 0.02 0.06 0.06 0.04 0.03 0.06 0.15 0.16 0.18 0.44 0.29 0.19 0.17 0.17 0.21 0.22 0.23 0.22 0.14 0.05 0.01 0.00 0.00
0.00 0.00 0.00 0.00 0.00 0.00 0.00 0.00 0.00 0.00 0.00 0.00 0.00 0.00 0.00 0.00 0.00 0.00 0.00 0.00 0.00 0.01 0.02 0.05 0.02 0.03 0.12 0.19 0.22 0.48 0.48 0.28 0.21 0.18 0.19 0.18 0.19 0.16 0.11 0.10 0.04 0.00 0.00
0.00 0.00 0.00 0.00 0.00 0.00 0.00 0.00 0.00 0.00 0.00 0.00 0.00 0.00 0.00 0.00 0.00 0.00 0.00 0.00 0.00 0.00 0.00 0.00 0.00 0.00 0.03 0.12 0.15 0.28 0.24 0.21 0.27 0.29 0.36 0.40 0.31 0.24 0.19 0.14 0.11 0.02 0.00
0.00 0.00 0.00 0.00 0.00 0.00 0.00 0.00 0.00 0.00 0.00 0.00 0.00 0.00 0.00 0.00 0.00 0.00 0.00 0.00 0.00 0.00 0.00 0.00 0.00 0.00 0.00 0.03 0.09 0.10 0.16 0.18 0.22 0.37 0.45 0.50 0.48 0.45 0.37 0.26 0.19 0.13 0.06
0.00 0.00 0.00 0.00 0.00 0.00 0.00 0.00 0.00 0.00 0.00 0.00 0.00 0.00 0.00 0.00 0.00 0.00 0.00 0.00 0.00 0.00 0.00 0.00 0.01 0.01 0.00 0.01 0.03 0.08 0.12 0.21 0.27 0.34 0.46 0.50 0.62 0.65 0.63 0.53 0.38 0.24 0.15
0.00 0.00 0.00 0.00 0.00 0.00 0.00 0.00 0.00 0.00 0.00 0.00 0.00 0.00 0.00 0.00 0.00 0.00 0.00 0.00 0.00 0.00 0.00 0.00 0.01 0.01 0.02 0.04 0.03 0.04 0.12 0.21 0.30 0.36 0.49 0.56 0.56 0.65 0.63 0.62 0.54 0.68 0.46
0.00 0.00 0.00 0.00 0.00 0.00 0.00 0.00 0.00 0.00 0.00 0.00 0.01 0.00 0.00 0.00 0.00 0.00 0.00 0.00 0.00 0.00 0.00 0.00 0.00 0.01 0.01 0.02 0.04 0.05 0.08 0.18 0.25 0.32 0.60 0.80 0.64 0.67 0.69 0.57 0.47 0.44 0.87
0.00 0.00 0.00 0.00 0.00 0.00 0.00 0.00 0.00 0.01 0.01 0.00 0.01 0.04 0.03 0.01 0.00 0.00 0.00 0.00 0.00 0.00 0.02 0.01 0.01 0.03 0.02 0.05 0.10 0.09 0.05 0.05 0.10 0.19 0.37 0.68 0.87 0.67 0.60 0.51 0.43 0.34 0.40
0.00 0.00 0.00 0.00 0.00 0.00 0.00 0.00 0.00 0.00 0.01 0.01 0.01 0.01 0.03 0.05 0.06 0.02 0.00 0.00 0.00 0.02 0.06 0.10 0.11 0.07 0.08 0.10 0.06 0.04 0.01 0.01 0.03 0.09 0.15 0.28 0.37 0.55 0.62 0.53 0.46 0.38 0.34
0.00 0.00 0.00 0.00 0.00 0.00 0.00 0.00 0.00 0.01 0.01 0.02 0.02 0.02 0.02 0.02 0.02 0.05 0.01 0.00 0.03 0.05 0.10 0.12 0.22 0.10 0.06 0.05 0.04 0.06 0.03 0.03 0.03 0.05 0.09 0.17 0.30 0.31 0.35 0.49 0.65 0.56 0.47
0.00 0.00 0.00 0.00 0.00 0.00 0.00 0.00 0.01 0.00 0.01 0.01 0.01 0.02 0.04 0.07 0.04 0.09 0.07 0.01 0.06 0.12 0.14 0.30 0.30 0.22 0.15 0.05 0.07 0.10 0.08 0.06 0.05 0.05 0.04 0.05 0.11 0.26 0.29 0.34 0.49 0.61 0.69
0.00 0.00 0.00 0.00 0.00 0.00 0.00 0.00 0.00 0.00 0.00 0.01 0.02 0.03 0.03 0.04 0.05 0.06 0.09 0.04 0.02 0.06 0.17 0.37 0.40 0.29 0.23 0.18 0.10 0.10 0.10 0.10 0.12 0.13 0.12 0.10 0.08 0.17 0.36 0.41 0.41 0.61 0.80
0.00 0.00 0.00 0.00 0.00 0.00 0.00 0.00 0.00 0.00 0.00 0.00 0.01 0.02 0.03 0.04 0.06 0.06 0.08 0.08 0.05 0.04 0.25 0.40 0.31 0.30 0.29 0.26 0.23 0.16 0.07 0.14 0.13 0.12 0.12 0.14 0.13 0.11 0.19 0.48 0.83 0.95 1.05
0.00 0.00 0.00 0.00 0.00 0.00 0.00 0.00 0.00 0.00 0.00 0.00 0.01 0.02 0.02 0.03 0.05 0.06 0.07 0.08 0.13 0.10 0.23 0.53 0.33 0.28 0.18 0.27 0.28 0.23 0.23 0.15 0.15 0.15 0.12 0.12 0.15 0.14 0.13 0.20 0.38 0.62 0.88
0.00 0.00 0.00 0.00 0.00 0.00 0.00 0.00 0.00 0.00 0.00 0.00 0.01 0.02 0.02 0.03 0.04 0.05 0.09 0.09 0.13 0.15 0.18 0.35 0.28 0.16 0.16 0.17 0.23 0.24 0.52 0.34 0.16 0.10 0.11 0.12 0.11 0.13 0.13 0.13 0.14 0.22 0.37
0.00 0.00 0.00 0.00 0.00 0.00 0.00 0.00 0.00 0.00 0.00 0.00 0.00 0.01 0.02 0.02 0.04 0.06 0.12 0.13 0.15 0.16 0.19 0.20 0.13 0.10 0.12 0.19 0.18 0.15 0.22 0.25 0.18 0.16 0.08 0.05 0.06 0.09 0.09 0.11 0.11 0.11 0.10
0.00 0.00 0.00 0.00 0.00 0.00 0.00 0.00 0.00 0.00 0.00 0.00 0.00 0.01 0.02 0.02 0.03 0.07 0.11 0.14 0.16 0.20 0.24 0.17 0.11 0.10 0.15 0.18 0.27 0.18 0.10 0.20 0.30 0.23 0.14 0.09 0.06 0.05 0.06 0.06 0.07 0.08 0.09
0.00 0.00 0.00 0.00 0.00 0.00 0.00 0.00 0.00 0.00 0.00 0.00 0.00 0.01 0.04 0.02 0.03 0.07 0.14 0.21 0.16 0.12 0.21 0.24 0.21 0.15 0.15 0.16 0.18 0.20 0.14 0.09 0.13 0.26 0.24 0.17 0.12 0.11 0.09 0.07 0.05 0.05 0.05
0.00 0.00 0.00 0.00 0.00 0.00 0.00 0.00 0.00 0.00 0.00 0.00 0.00 0.00 0.01 0.03 0.05 0.06 0.11 0.22 0.23 0.21 0.24 0.26 0.27 0.20 0.18 0.19 0.16 0.13 0.11 0.08 0.06 0.04 0.07 0.10 0.09 0.09 0.13 0.12 0.08 0.04 0.03
0.00 0.00 0.00 0.00 0.00 0.00 0.00 0.00 0.00 0.00 0.00 0.00 0.00 0.00 0.00 0.00 0.01 0.03 0.03 0.10 0.18 0.23 0.26 0.28 0.31 0.31 0.26 0.24 0.23 0.21 0.16 0.13 0.09 0.06 0.02 0.01 0.01 0.01 0.02 0.02 0.04 0.04 0.01
0.00 0.00 0.00 0.00 0.00 0.00 0.00 0.00 0.00 0.00 0.00 0.00 0.00 0.00 0.00 0.00 0.00 0.00 0.01 0.01 0.04 0.09 0.13 0.14 0.20 0.29 0.34 0.28 0.29 0.24 0.24 0.26 0.20 0.12 0.10 0.06 0.01 0.00 0.00 0.00 0.01 0.00 0.01
0.00 0.00 0.00 0.00 0.00 0.00 0.00 0.00 0.00 0.00 0.00 0.00 0.00 0.00 0.00 0.00 0.00 0.00 0.00 0.00 0.00 0.00 0.00 0.01 0.03 0.07 0.11 0.15 0.15 0.09 0.10 0.11 0.10 0.05 0.08 0.08 0.06 0.01 0.00 0.00 0.00 0.00 0.00
0.00 0.00 0.00 0.00 0.00 0.00 0.00 0.00 0.00 0.00 0.00 0.00 0.00 0.00 0.00 0.00 0.00 0.00 0.00 0.00 0.00 0.01 0.00 0.00 0.01 0.01 0.00 0.00 0.00 0.01 0.01 0.01 0.00 0.00 0.00 0.00 0.01 0.01 0.00 0.00 0.00 0.00 0.00
0.00 0.00 0.00 0.00 0.00 0.00 0.00 0.00 0.00 0.00 0.00 0.00 0.00 0.00 0.00 0.00 0.00 0.00 0.00 0.00 0.00 0.00 0.00 0.00 0.00 0.00 0.00 0.00 0.00 0.00 0.00 0.00 0.00 0.00 0.00 0.00 0.00 0.01 0.01 0.00 0.00 0.00 0.00
0.00 0.00 0.00 0.00 0.00 0.00 0.00 0.00 0.00 0.00 0.00 0.00 0.00 0.00 0.00 0.00 0.00 0.00 0.00 0.00 0.00 0.00 0.00 0.00 0.00 0.00 0.00 0.00 0.00 0.00 0.00 0.00 0.00 0.00 0.00 0.00 0.00 0.00 0.03 0.00 0.00 0.00 0.00